Bellingham, WA
on Sunday, December 23, 2012

Sunday
Previous Day Next Day
Daily Summary
 ActualAverageRecord
Temperature
Mean Temperature °F 38°F  
Max Temperature 45°F 44°F 59°F (1950)
Min Temperature 36°F 32°F 8°F (1990)
Degree Days
Heating Degree Days 24 27  
Month to date heating degree days 611  
Cooling Degree Days 0 0  
Month to date cooling degree days 0  
Year to date cooling degree days 42  
Moisture
Dew Point 35°F   
Average Humidity 80    
Maximum Humidity 97    
Minimum Humidity 65    
Precipitation
Precipitation 0.00 in 0.12 in 1.26 in (1949)
Month to date precipitation 3.25  
Year to date precipitation 34.86  
Wind
Wind Speed 12 mph   
Max Wind Speed 22 mph   
Max Gust Speed 33 mph   
Visibility 10 miles   
Events Rain   

Key: T is trace of precipitation, MM is missing value
Source: NWS Daily Summary
Time(PST)TemperatureDew PointHumidity Pressure Visibility Wind DirectionWind SpeedGust SpeedPrecipitationEvents Conditions
12:45 AM 44.6°F 35.6°F 71% 29.71 in 10.0 miles SE 17.3 mph 26.5 mph N/A   Mostly Cloudy
12:53 AM 44.1°F 36.0°F 73% 29.73 in 10.0 miles SE 16.1 mph 24.2 mph N/A   Overcast
1:26 AM 44.6°F 35.6°F 71% 29.70 in 10.0 miles SE 21.9 mph 28.8 mph N/A   Overcast
1:53 AM 44.1°F 36.0°F 73% 29.73 in 10.0 miles SE 18.4 mph 26.5 mph N/A   Mostly Cloudy
2:53 AM 45.0°F 35.1°F 68% 29.73 in 10.0 miles SE 21.9 mph 27.6 mph N/A   Partly Cloudy
3:53 AM 44.6°F 35.6°F 71% 29.72 in 10.0 miles ESE 17.3 mph 33.4 mph N/A   Mostly Cloudy
4:53 AM 44.1°F 35.1°F 71% 29.73 in 10.0 miles East 10.4 mph - N/A   Mostly Cloudy
5:53 AM 44.1°F 35.1°F 71% 29.73 in 10.0 miles SE 15.0 mph 23.0 mph N/A   Overcast
6:53 AM 44.1°F 35.1°F 71% 29.74 in 10.0 miles ESE 11.5 mph 25.3 mph N/A   Mostly Cloudy
7:53 AM 43.0°F 35.1°F 74% 29.73 in 10.0 miles ESE 11.5 mph 19.6 mph N/A   Partly Cloudy
8:53 AM 45.0°F 35.1°F 68% 29.75 in 10.0 miles ESE 8.1 mph - N/A   Mostly Cloudy
9:53 AM 45.0°F 34.0°F 65% 29.74 in 10.0 miles ESE 11.5 mph 16.1 mph N/A   Overcast
10:53 AM 39.0°F 34.0°F 82% 29.72 in 10.0 miles NNE 5.8 mph - N/A   Overcast
11:53 AM 39.9°F 34.0°F 79% 29.70 in 10.0 miles North 3.5 mph - N/A   Overcast
12:53 PM 41.0°F 35.1°F 79% 29.68 in 10.0 miles NNW 5.8 mph - 0.00 in   Overcast
1:53 PM 39.9°F 33.1°F 77% 29.67 in 10.0 miles NNE 6.9 mph - N/A   Overcast
2:53 PM 39.9°F 33.1°F 77% 29.67 in 10.0 miles Variable 4.6 mph - N/A   Overcast
3:53 PM 39.9°F 33.1°F 77% 29.68 in 10.0 miles ENE 5.8 mph - 0.00 in Rain Light Rain
4:53 PM 39.0°F 33.1°F 79% 29.69 in 10.0 miles North 4.6 mph - 0.00 in Rain Light Rain
5:53 PM 37.9°F 35.1°F 89% 29.70 in 9.0 miles North 3.5 mph - 0.00 in Rain Light Rain
6:37 PM 37.4°F 35.6°F 93% 29.69 in 7.0 miles Calm Calm - 0.00 in Rain Light Rain
6:53 PM 37.9°F 36.0°F 93% 29.72 in 7.0 miles Calm Calm - 0.00 in Rain Light Rain
7:53 PM 37.0°F 36.0°F 96% 29.74 in 8.0 miles Calm Calm - 0.00 in Rain Light Rain
8:25 PM 37.4°F 35.6°F 93% 29.72 in 9.0 miles NNE 3.5 mph - 0.00 in Rain Light Rain
8:53 PM 37.0°F 35.1°F 93% 29.75 in 10.0 miles Calm Calm - 0.00 in Rain Light Rain
9:53 PM 37.0°F 36.0°F 96% 29.78 in 10.0 miles Calm Calm - 0.00 in Rain Light Rain
10:53 PM 36.0°F 35.1°F 97% 29.81 in 10.0 miles Calm Calm - 0.00 in   Overcast
11:53 PM 36.0°F 34.0°F 93% 29.83 in 10.0 miles North 3.5 mph - N/A   Overcast
Moon Phase
Dec. 23 Dec. 28 Jan. 04 Jan. 11 Jan. 18
Sunrise:08:01 AM (PST) Moon Rise:01:20 PM (PST)12/23
Sunset:04:17 PM (PST) Moon Set:03:38 AM (PST)12/23

Copyright © 2014 The Weather Underground, Inc.